ITA6374 DAAG-LIMJ

Flight info

Callsign ITA6374
Flight time N/A
Altitude 36000
Route PECES1D MHN N853 LUMAS UM976 SOSUR DCT STP Y15 MIKRU
Aircraft A320/M-SDE3FGHIRWY/LB1

Departure

Time N/A
Airport Houari Boumediene Airport (DAAG)

Arrival

Time 2026-04-21 21:05
Airport Genoa Cristoforo Colombo Airport (LIMJ)
Time Latitude Longitude Altitude Speed Heading
2026-04-21 20:12 43.71191 7.60339 35762 ft 473 kts 45°
2026-04-21 20:12 43.73215 7.63925 35510 ft 473 kts 45°
2026-04-21 20:13 43.75240 7.67509 35257 ft 473 kts 45°
2026-04-21 20:13 43.77264 7.71101 35025 ft 473 kts 45°
2026-04-21 20:13 43.79281 7.74698 34784 ft 473 kts 45°
2026-04-21 20:13 43.81295 7.78300 34543 ft 473 kts 45°
2026-04-21 20:14 43.83305 7.81900 34282 ft 473 kts 45°
2026-04-21 20:14 43.85327 7.85519 33213 ft 479 kts 45°
2026-04-21 20:14 43.87370 7.89173 32268 ft 479 kts 45°
2026-04-21 20:14 43.89385 7.92787 31227 ft 482 kts 45°
2026-04-21 20:15 43.91431 7.96469 30274 ft 482 kts 45°
2026-04-21 20:15 43.93482 8.00161 29025 ft 485 kts 45°
2026-04-21 20:15 43.95552 8.03858 27887 ft 484 kts 43°
2026-04-21 20:15 43.97961 8.06989 26831 ft 467 kts 27°
2026-04-21 20:16 44.00818 8.08904 26340 ft 449 kts
2026-04-21 20:16 44.03825 8.09738 26806 ft 437 kts
2026-04-21 20:16 44.06805 8.10468 27371 ft 432 kts
2026-04-21 20:16 44.09749 8.11198 27832 ft 430 kts
2026-04-21 20:17 44.12709 8.11939 27950 ft 435 kts
2026-04-21 20:17 44.15666 8.12676 27965 ft 440 kts
2026-04-21 20:17 44.18686 8.13437 27967 ft 442 kts
2026-04-21 20:17 44.21713 8.14201 27967 ft 442 kts
2026-04-21 20:18 44.23718 8.14705 27967 ft 442 kts
2026-04-21 20:18 44.27767 8.15726 27964 ft 442 kts
2026-04-21 20:18 44.30796 8.16489 27965 ft 442 kts
2026-04-21 20:18 44.33828 8.17251 27973 ft 442 kts
2026-04-21 20:19 44.36855 8.18020 27478 ft 442 kts
2026-04-21 20:19 44.39880 8.18790 26957 ft 442 kts
2026-04-21 20:19 44.42917 8.19554 26443 ft 444 kts
2026-04-21 20:19 44.45921 8.20299 25946 ft 446 kts
2026-04-21 20:20 44.48981 8.21048 25450 ft 447 kts
2026-04-21 20:20 44.52056 8.21791 24960 ft 449 kts
2026-04-21 20:20 44.55144 8.22528 24485 ft 451 kts
2026-04-21 20:20 44.58247 8.23262 24016 ft 453 kts
2026-04-21 20:21 44.61357 8.23989 23553 ft 452 kts
2026-04-21 20:21 44.64451 8.24706 23010 ft 450 kts
2026-04-21 20:21 44.67532 8.25417 22469 ft 447 kts
2026-04-21 20:21 44.70588 8.26122 22073 ft 444 kts
2026-04-21 20:22 44.73624 8.26844 21932 ft 442 kts
2026-04-21 20:22 44.79646 8.28300 21968 ft 442 kts
2026-04-21 20:22 44.82681 8.29032 21969 ft 442 kts
2026-04-21 20:23 44.85717 8.29763 21965 ft 442 kts
2026-04-21 20:23 44.88752 8.30497 21969 ft 442 kts
2026-04-21 20:23 44.91781 8.31240 21965 ft 442 kts
2026-04-21 20:23 44.94806 8.32002 21967 ft 441 kts
2026-04-21 20:24 44.97768 8.33285 21960 ft 454 kts 18°
2026-04-21 20:24 45.00456 8.35759 21968 ft 470 kts 35°
2026-04-21 20:24 45.02583 8.39348 21961 ft 487 kts 53°
2026-04-21 20:24 45.03878 8.43835 21972 ft 502 kts 72°
2026-04-21 20:25 45.04129 8.48803 21968 ft 515 kts 92°
2026-04-21 20:25 45.03249 8.53719 21970 ft 521 kts 112°
2026-04-21 20:25 45.01546 8.58168 21735 ft 522 kts 125°
2026-04-21 20:25 44.99178 8.61992 21204 ft 514 kts 141°
2026-04-21 20:26 44.96292 8.64873 20713 ft 505 kts 153°
2026-04-21 20:26 44.93256 8.67338 20200 ft 501 kts 154°
2026-04-21 20:26 44.90241 8.69768 19712 ft 498 kts 154°
2026-04-21 20:26 44.87244 8.72181 19222 ft 494 kts 154°
2026-04-21 20:27 44.84274 8.74578 18726 ft 490 kts 153°
2026-04-21 20:27 44.81329 8.76962 18277 ft 486 kts 154°
2026-04-21 20:27 44.78415 8.79329 17744 ft 482 kts 153°
2026-04-21 20:27 44.75517 8.81682 17214 ft 477 kts 153°
2026-04-21 20:28 44.72698 8.83970 16956 ft 473 kts 153°
2026-04-21 20:28 44.69849 8.86272 16969 ft 472 kts 153°
2026-04-21 20:28 44.66998 8.88562 16969 ft 472 kts 154°
2026-04-21 20:28 44.64147 8.90848 16950 ft 472 kts 153°
2026-04-21 20:29 44.61293 8.93124 16975 ft 472 kts 154°
2026-04-21 20:29 44.58436 8.95385 16975 ft 472 kts 154°
2026-04-21 20:29 44.55575 8.97649 16971 ft 472 kts 154°
2026-04-21 20:29 44.52716 8.99910 16976 ft 472 kts 154°
2026-04-21 20:30 44.49856 9.02173 16973 ft 472 kts 154°
2026-04-21 20:30 44.47001 9.04439 16977 ft 472 kts 154°
2026-04-21 20:30 44.44131 9.06542 16965 ft 454 kts 163°
2026-04-21 20:30 44.41217 9.07607 16975 ft 426 kts 178°
2026-04-21 20:31 44.38363 9.07656 16968 ft 398 kts 191°
2026-04-21 20:31 44.35667 9.07359 16973 ft 380 kts 191°
2026-04-21 20:31 44.33086 9.07044 16967 ft 364 kts 192°
2026-04-21 20:31 44.30641 9.06726 16966 ft 340 kts 193°
2026-04-21 20:32 44.28366 9.06476 16965 ft 319 kts 186°
2026-04-21 20:32 44.26199 9.07039 16972 ft 322 kts 162°
2026-04-21 20:32 44.24321 9.08746 16957 ft 326 kts 135°
2026-04-21 20:32 44.23063 9.11314 16970 ft 325 kts 117°
2026-04-21 20:33 44.22003 9.14242 16968 ft 352 kts 115°
2026-04-21 20:33 44.20910 9.17368 16974 ft 363 kts 120°
2026-04-21 20:33 44.19326 9.20071 16968 ft 360 kts 145°
2026-04-21 20:33 44.17180 9.21621 16974 ft 349 kts 172°
2026-04-21 20:34 44.14849 9.21863 16958 ft 321 kts 196°
2026-04-21 20:34 44.12844 9.21029 16968 ft 288 kts 217°
2026-04-21 20:34 44.11269 9.19484 16969 ft 270 kts 234°
2026-04-21 20:34 44.10151 9.17463 16966 ft 259 kts 250°
2026-04-21 20:35 44.09519 9.15176 16970 ft 250 kts 264°
2026-04-21 20:35 44.09370 9.12806 16969 ft 244 kts 278°
2026-04-21 20:35 44.09686 9.10497 16964 ft 242 kts 291°
2026-04-21 20:35 44.10428 9.08409 16953 ft 242 kts 304°
2026-04-21 20:36 44.11551 9.06662 16967 ft 245 kts 317°
2026-04-21 20:36 44.12997 9.05378 16972 ft 250 kts 332°
2026-04-21 20:36 44.14690 9.04661 16678 ft 262 kts 346°
2026-04-21 20:36 44.16525 9.04579 16229 ft 272 kts 355°
2026-04-21 20:37 44.18433 9.04769 15774 ft 278 kts 359°
2026-04-21 20:37 44.20370 9.05063 15324 ft 282 kts
2026-04-21 20:37 44.22334 9.05386 14880 ft 286 kts
2026-04-21 20:37 44.24321 9.05708 14444 ft 289 kts
2026-04-21 20:38 44.26331 9.06022 14032 ft 292 kts
2026-04-21 20:38 44.28361 9.06326 13577 ft 295 kts
2026-04-21 20:38 44.30353 9.06924 13079 ft 295 kts 18°
2026-04-21 20:38 44.32045 9.08556 12525 ft 300 kts 43°
2026-04-21 20:39 44.33119 9.11059 11991 ft 304 kts 69°
2026-04-21 20:39 44.33361 9.13979 11456 ft 305 kts 96°
2026-04-21 20:39 44.32714 9.16746 11046 ft 297 kts 123°
2026-04-21 20:39 44.31396 9.18812 10964 ft 279 kts 147°
2026-04-21 20:40 44.29706 9.20011 10686 ft 273 kts 169°
2026-04-21 20:40 44.27857 9.20242 10326 ft 265 kts 186°
2026-04-21 20:40 44.26019 9.20068 9968 ft 265 kts 189°
2026-04-21 20:40 44.24181 9.19801 9565 ft 266 kts 189°
2026-04-21 20:41 44.22342 9.19508 9176 ft 266 kts 189°
2026-04-21 20:41 44.20515 9.19220 8965 ft 260 kts 189°
2026-04-21 20:41 44.18760 9.18784 8968 ft 254 kts 203°
2026-04-21 20:41 44.17229 9.17629 8974 ft 249 kts 223°
2026-04-21 20:42 44.16081 9.15862 8971 ft 245 kts 242°
2026-04-21 20:42 44.15427 9.13708 8972 ft 241 kts 260°
2026-04-21 20:42 44.15327 9.11426 8972 ft 239 kts 278°
2026-04-21 20:42 44.15775 9.09217 8972 ft 238 kts 297°
2026-04-21 20:43 44.16714 9.07328 8972 ft 238 kts 314°
2026-04-21 20:43 44.18047 9.05956 8971 ft 241 kts 332°
2026-04-21 20:43 44.19651 9.05271 8972 ft 244 kts 351°
2026-04-21 20:43 44.21357 9.05250 8973 ft 247 kts
2026-04-21 20:44 44.23091 9.05446 8593 ft 254 kts
2026-04-21 20:44 44.24860 9.05719 8144 ft 257 kts
2026-04-21 20:44 44.26622 9.06009 7702 ft 259 kts
2026-04-21 20:44 44.28422 9.06299 7257 ft 261 kts
2026-04-21 20:45 44.30167 9.06888 7010 ft 255 kts 25°
2026-04-21 20:45 44.31525 9.08365 7006 ft 246 kts 50°
2026-04-21 20:45 44.32309 9.10480 7013 ft 248 kts 76°
2026-04-21 20:45 44.32370 9.12869 7010 ft 249 kts 102°
2026-04-21 20:46 44.31682 9.15069 7010 ft 249 kts 128°
2026-04-21 20:46 44.30385 9.16641 7011 ft 249 kts 154°
2026-04-21 20:46 44.28737 9.17288 7012 ft 247 kts 180°
2026-04-21 20:46 44.27021 9.17179 7013 ft 247 kts 186°
2026-04-21 20:47 44.25308 9.16949 7015 ft 248 kts 187°
2026-04-21 20:47 44.23593 9.16687 7006 ft 248 kts 188°
2026-04-21 20:47 44.21897 9.16425 7008 ft 249 kts 188°
2026-04-21 20:47 44.20192 9.16068 7004 ft 247 kts 200°
2026-04-21 20:48 44.18720 9.14918 7011 ft 243 kts 225°
2026-04-21 20:48 44.17733 9.13051 7012 ft 239 kts 249°
2026-04-21 20:48 44.17384 9.10816 7007 ft 237 kts 272°
2026-04-21 20:48 44.17726 9.08597 7002 ft 236 kts 296°
2026-04-21 20:49 44.18686 9.06758 7005 ft 237 kts 319°
2026-04-21 20:49 44.20111 9.05596 6819 ft 240 kts 342°
2026-04-21 20:49 44.21760 9.05361 6562 ft 240 kts
2026-04-21 20:49 44.23426 9.05541 6292 ft 240 kts
2026-04-21 20:50 44.25086 9.05789 6058 ft 239 kts
2026-04-21 20:50 44.26716 9.06044 6010 ft 238 kts
2026-04-21 20:50 44.28365 9.06301 6011 ft 239 kts
2026-04-21 20:50 44.29988 9.06762 6003 ft 239 kts 25°
2026-04-21 20:51 44.31287 9.08176 6006 ft 240 kts 52°
2026-04-21 20:51 44.31990 9.10314 6014 ft 250 kts 80°
2026-04-21 20:51 44.31878 9.12733 6016 ft 254 kts 109°
2026-04-21 20:51 44.30933 9.14790 6010 ft 255 kts 139°
2026-04-21 20:52 44.29956 9.15679 6011 ft 254 kts 159°
2026-04-21 20:52 44.27689 9.15927 6007 ft 243 kts 197°
2026-04-21 20:52 44.26129 9.15213 6013 ft 234 kts 200°
2026-04-21 20:52 44.24588 9.14504 6005 ft 233 kts 196°
2026-04-21 20:53 44.22982 9.14247 6009 ft 234 kts 177°
2026-04-21 20:53 44.21394 9.14711 6012 ft 235 kts 158°
2026-04-21 20:53 44.20431 9.15402 6011 ft 235 kts 146°
2026-04-21 20:53 44.18688 9.17254 6012 ft 236 kts 142°
2026-04-21 20:54 44.17825 9.18173 6010 ft 236 kts 143°
2026-04-21 20:54 44.16520 9.19555 6011 ft 236 kts 143°
2026-04-21 20:54 44.15212 9.20937 6011 ft 236 kts 143°
2026-04-21 20:54 44.13482 9.22767 6011 ft 236 kts 143°
2026-04-21 20:55 44.12601 9.23699 6008 ft 236 kts 143°
2026-04-21 20:55 44.10926 9.25530 6004 ft 226 kts 133°
2026-04-21 20:55 44.10332 9.26704 6007 ft 225 kts 112°
2026-04-21 20:55 44.10088 9.28811 6009 ft 222 kts 80°
2026-04-21 20:56 44.10649 9.30776 6012 ft 220 kts 52°
2026-04-21 20:56 44.11606 9.32506 6016 ft 232 kts 51°
2026-04-21 20:56 44.12599 9.34300 6011 ft 235 kts 51°
2026-04-21 20:56 44.13626 9.36073 6011 ft 235 kts 41°
2026-04-21 20:57 44.15040 9.37097 6009 ft 231 kts
2026-04-21 20:57 44.16603 9.36843 6012 ft 228 kts 333°
2026-04-21 20:57 44.17916 9.35605 6013 ft 229 kts 322°
2026-04-21 20:57 44.19185 9.34254 6014 ft 230 kts 322°
2026-04-21 20:58 44.20440 9.32915 6011 ft 221 kts 322°
2026-04-21 20:58 44.21623 9.31658 6006 ft 208 kts 322°
2026-04-21 20:58 44.22785 9.30423 6023 ft 221 kts 322°
2026-04-21 20:58 44.24041 9.29086 6026 ft 235 kts 322°
2026-04-21 20:59 44.25350 9.27697 6020 ft 238 kts 322°
2026-04-21 20:59 44.26658 9.26311 6016 ft 230 kts 322°
2026-04-21 20:59 44.27922 9.24973 6020 ft 227 kts 322°
2026-04-21 20:59 44.29180 9.23639 6014 ft 227 kts 322°
2026-04-21 21:00 44.30441 9.22305 6016 ft 228 kts 323°
2026-04-21 21:00 44.31700 9.20977 6017 ft 226 kts 323°
2026-04-21 21:00 44.32944 9.19620 6016 ft 229 kts 316°
2026-04-21 21:00 44.33889 9.17838 6015 ft 230 kts 295°
2026-04-21 21:01 44.34409 9.15721 6016 ft 229 kts 288°
2026-04-21 21:01 44.34868 9.13694 6002 ft 214 kts 288°
2026-04-21 21:01 44.35302 9.11727 5746 ft 215 kts 287°
2026-04-21 21:01 44.35767 9.09593 4812 ft 243 kts 287°
2026-04-21 21:02 44.36273 9.07263 4186 ft 251 kts 287°
2026-04-21 21:02 44.36787 9.04889 3273 ft 260 kts 287°
2026-04-21 21:02 44.37310 9.02476 2655 ft 256 kts 287°
2026-04-21 21:02 44.37809 9.00172 2259 ft 236 kts 287°
2026-04-21 21:03 44.38261 8.98080 1944 ft 214 kts 287°
2026-04-21 21:03 44.38668 8.96195 1665 ft 194 kts 287°
2026-04-21 21:03 44.39047 8.94439 1368 ft 183 kts 287°
2026-04-21 21:03 44.39395 8.92827 1130 ft 169 kts 286°
2026-04-21 21:04 44.39717 8.91332 920 ft 154 kts 286°
2026-04-21 21:04 44.40019 8.89942 676 ft 146 kts 287°
2026-04-21 21:04 44.40311 8.88595 456 ft 144 kts 286°
2026-04-21 21:04 44.40592 8.87259 271 ft 143 kts 286°
2026-04-21 21:05 44.40848 8.85914 87 ft 144 kts 285°
2026-04-21 21:05 44.41100 8.84620 14 ft 124 kts 286°
2026-04-21 21:05 44.41264 8.83779 11 ft 63 kts 285°
2026-04-21 21:05 44.41383 8.83235 11 ft 45 kts 288°
2026-04-21 21:06 44.41475 8.83098 12 ft 16 kts 326°
2026-04-21 21:06 44.41547 8.83139 11 ft 8 kts 69°
2026-04-21 21:06 44.41549 8.83167 11 ft 0 kts 90°
2026-04-21 21:06 44.41549 8.83174 11 ft 5 kts 90°
2026-04-21 21:07 44.41526 8.83337 11 ft 28 kts 109°
2026-04-21 21:07 44.41462 8.83621 11 ft 30 kts 105°
2026-04-21 21:07 44.41409 8.83892 10 ft 28 kts 105°
2026-04-21 21:07 44.41359 8.84152 10 ft 28 kts 105°
2026-04-21 21:08 44.41317 8.84378 10 ft 15 kts 89°
2026-04-21 21:08 44.41370 8.84507 10 ft 16 kts 52°
2026-04-21 21:08 44.41444 8.84637 10 ft 18 kts 51°
2026-04-21 21:08 44.41523 8.84774 10 ft 18 kts 51°
2026-04-21 21:09 44.41565 8.84893 10 ft 5 kts 118°
2026-04-21 21:09 44.41551 8.84929 10 ft 0 kts 117°